星链-3619 (STARLINK-3619 )

导读 | 豆包AI

STARLINK-3619是美国太空探索技术公司 SpaceX 星链(Starlink)星座的组网卫星,于2022年2月25日发射升空。星链项目旨在构建全球卫星互联网星座,该卫星加入后进一步完善了星链低轨卫星网络的覆盖能力,为全球多地提供宽带互联网接入服务,推动全球网络覆盖与通信互联发展。

基本信息
目录编号:
51787
目录名称:
STARLINK-3619
国际标识:
2022-017V
轨道中心:
EARTH
卫星名称:
星链-3619
卫星全名:
星链-3619 (STARLINK-3619 )
卫星状态:
在轨 (已飞行1478 天)
发射日期:
2022-02-25 UTC
国别 :
美国 (US)
星等 :
--
轨道信息
数据来源 国际轨道数据 AOE轨道数据
星历时间 2026-03-14T18:34:39+0800
11小时前
查看轨道信息
2026-03-12T15:00:00+0800
2天前
查看轨道信息
半长轴 6917.88km 6917.815km
偏心率 0.0001324 0.0001368
轨道倾角 53.218° 53.216°
近地点辐角 79.981° 89.367°
升交点赤经 327.796° 337.442°
平近点角 280.133° 111.028°
近地点 538.827km 538.731km
远地点 540.659km 540.625km
周期 95.438分钟 95.436分钟
每日圈数 15.088402 15.088617
详细信息
固有亮度:
5
最大亮度:
2.5
卫星平台:
Starlink v1.5
覆盖范围:
全球
运营商:
太空探索技术公司
运营商所在国:
美国
制造商(研发单位):
太空探索技术公司
制造商所在国:
美国
使用方式:
暂无
卫星简介
星链(Starlink)计划是由太空探索技术公司(SpaceX)提出的一个巨型低轨卫星互联网星座项目,计划在2019年至2024年间在太空搭建由约1.2万颗卫星组成的“星链”网络,其中1584颗将部署在地球上空550千米处的近地轨道,并从2020年开始工作。该卫星仍在工作。
2D轨道图
3D轨道图
轨道高度分析图
轨道倾角分析图
轨道综合分析图
查看轨道综合分析图